Home > Weather > Halifax > Past weeks

Flag for Canada Weather for the Past 2 Weeks in Halifax, Nova Scotia, Canada

Now
48 °F

Sunny.


Feels Like: 44 °F
Forecast: N/A
Wind: 9 mph from North

Location: Halifax International Airport

Current Time: Apr 29, 2016 at 5:49:36 PM

Latest Report: Apr 29, 2016 at 5:00 PM


Visibility: 15 mi

Pressure: 30.07 "Hg

Humidity: 20%

Dew Point: 9 °F

Location of HalifaxLocation

Historic Weather in Halifax — Graph

°F

Halifax Temperature Yesterday

Maximum temperature yesterday: 39 °F (at 3:00 PM)
Minimum temperature yesterday: 32 °F (at 6:00 AM)
Average temperature yesterday: 35 °F

High & Low Weather Summary for the Past Weeks

 TemperatureHumidityPressure
High68 °F (Apr 22, 4:00 PM)100% (Apr 15, 12:00 AM)30.48 "Hg (Apr 15, 12:00 AM)
Low27 °F (Apr 19, 2:00 AM)25% (Apr 29, 3:00 PM)29.67 "Hg (Apr 21, 5:00 PM)
Average39 °F69%30.00 "Hg
* Reported Apr 14 3:00 PM — Apr 29 3:59 PM, Halifax, Weather by CustomWeather, © 2016

Note: Actual official high and low records may vary slightly from our data, if they occured in-between our weather recording intervals... More about our weather records

Advertising

Halifax Weather History for the Previous 24 Hours

Scroll right to see more
 ConditionsComfort  
Time TempWeatherWind HumidityBarometerVisibility
3:59 PM
Fri, Apr 29
48 °FSunny.13 mph25%30.08 "Hg15 mi
3:00 PM46 °FSunny.7 mph25%30.09 "Hg15 mi
2:00 PM46 °FPassing clouds.10 mph27%30.12 "Hg15 mi
1:00 PM43 °FPassing clouds.No wind34%30.14 "Hg15 mi
12:00 PM43 °FPassing clouds.8 mph39%30.15 "Hg15 mi
11:00 AM39 °FPassing clouds.7 mph36%30.17 "Hg15 mi
10:00 AM37 °FPassing clouds.12 mph41%30.17 "Hg15 mi
9:00 AM34 °FSunny.9 mph48%30.17 "Hg15 mi
8:00 AM32 °FSunny.5 mph51%30.16 "Hg15 mi
7:00 AM28 °FClear.8 mph59%30.15 "Hg15 mi
6:00 AM27 °FClear.7 mph64%30.13 "Hg15 mi
5:00 AM27 °FClear.7 mph64%30.13 "Hg15 mi
4:00 AM28 °FClear.8 mph59%30.12 "Hg15 mi
3:00 AM28 °FClear.7 mph59%30.12 "Hg15 mi
2:00 AM28 °FPassing clouds.7 mph59%30.12 "Hg15 mi
1:00 AM28 °FPassing clouds.6 mph59%30.12 "Hg15 mi
12:00 AM30 °FPassing clouds.6 mph55%30.12 "Hg15 mi
11:00 PM
Thu, Apr 28
32 °FPassing clouds.12 mph47%30.09 "Hg15 mi
10:00 PM32 °FPassing clouds.9 mph47%30.08 "Hg15 mi
9:00 PM34 °FPassing clouds.8 mph41%30.06 "Hg15 mi
8:00 PM36 °FPassing clouds.15 mph38%30.03 "Hg15 mi
7:00 PM37 °FPassing clouds.21 mph33%30.00 "Hg15 mi
6:00 PM39 °FPassing clouds.18 mph33%29.98 "Hg15 mi
5:00 PM39 °FPassing clouds.18 mph30%29.96 "Hg15 mi
Weather by CustomWeather, © 2016

See weather overviewHow to use our weather pages